N77FK LFPB-LFMD

Flight info

Callsign N77FK
Flight time 1h 21m
Altitude 35000
Route LATRA DCT LAMUT DCT UTUVA DCT LERGA DCT LIQID DCT LATAM DCT MTL DCT XATEL
Aircraft PC24/M-SBDGIRWY/LB2

Departure

Time 2026-04-21 19:14
Airport Paris-Le Bourget International Airport (LFPB)

Arrival

Time 2026-04-21 20:35
Airport Cannes Mandelieu Airport (LFMD)
Time Latitude Longitude Altitude Speed Heading
2026-04-21 18:40 48.95994 2.44358 156 ft 0 kts 86°
2026-04-21 19:04 48.95999 2.44365 157 ft 3 kts 32°
2026-04-21 19:04 48.96026 2.44353 157 ft 7 kts 313°
2026-04-21 19:05 48.96028 2.44293 158 ft 6 kts 215°
2026-04-21 19:05 48.95970 2.44251 157 ft 13 kts 206°
2026-04-21 19:05 48.95880 2.44189 153 ft 15 kts 205°
2026-04-21 19:05 48.95786 2.44121 152 ft 14 kts 206°
2026-04-21 19:06 48.95703 2.44051 151 ft 13 kts 235°
2026-04-21 19:06 48.95719 2.43923 150 ft 12 kts 294°
2026-04-21 19:06 48.95750 2.43820 151 ft 9 kts 295°
2026-04-21 19:06 48.95773 2.43743 152 ft 7 kts 295°
2026-04-21 19:07 48.95790 2.43687 152 ft 5 kts 295°
2026-04-21 19:07 48.95812 2.43616 152 ft 10 kts 294°
2026-04-21 19:07 48.95831 2.43554 157 ft 5 kts 295°
2026-04-21 19:07 48.95855 2.43472 158 ft 13 kts 294°
2026-04-21 19:08 48.95907 2.43299 156 ft 20 kts 295°
2026-04-21 19:08 48.95968 2.43110 154 ft 20 kts 304°
2026-04-21 19:08 48.96054 2.42944 148 ft 20 kts 308°
2026-04-21 19:08 48.96133 2.42794 150 ft 16 kts 310°
2026-04-21 19:09 48.96192 2.42685 154 ft 11 kts 307°
2026-04-21 19:09 48.96227 2.42617 157 ft 6 kts 309°
2026-04-21 19:09 48.96248 2.42577 157 ft 5 kts 309°
2026-04-21 19:09 48.96266 2.42525 157 ft 6 kts 284°
2026-04-21 19:10 48.96267 2.42514 157 ft 0 kts 280°
2026-04-21 19:10 48.96268 2.42499 157 ft 6 kts 276°
2026-04-21 19:10 48.96267 2.42383 155 ft 14 kts 268°
2026-04-21 19:10 48.96263 2.42248 155 ft 12 kts 266°
2026-04-21 19:11 48.96266 2.42134 156 ft 10 kts 290°
2026-04-21 19:11 48.96311 2.42061 154 ft 11 kts 341°
2026-04-21 19:11 48.96384 2.42083 151 ft 10 kts 38°
2026-04-21 19:11 48.96385 2.42121 152 ft 1 kts 94°
2026-04-21 19:12 48.96385 2.42125 152 ft 0 kts 98°
2026-04-21 19:12 48.96379 2.42165 153 ft 0 kts 88°
2026-04-21 19:13 48.96391 2.42431 158 ft 65 kts 84°
2026-04-21 19:13 48.96479 2.43501 178 ft 136 kts 83°
2026-04-21 19:13 48.96557 2.45148 524 ft 177 kts 85°
2026-04-21 19:14 48.96545 2.46466 951 ft 194 kts 88°
2026-04-21 19:14 48.96607 2.48411 2077 ft 171 kts 80°
2026-04-21 19:14 48.96777 2.50080 2922 ft 150 kts 82°
2026-04-21 19:14 48.96896 2.51756 3032 ft 172 kts 84°
2026-04-21 19:15 48.96848 2.53662 3331 ft 182 kts 96°
2026-04-21 19:15 48.96679 2.55565 3874 ft 181 kts 95°
2026-04-21 19:15 48.96544 2.57466 4383 ft 181 kts 94°
2026-04-21 19:15 48.96414 2.59389 4890 ft 183 kts 94°
2026-04-21 19:16 48.96282 2.61325 5394 ft 185 kts 95°
2026-04-21 19:16 48.96151 2.63253 5892 ft 187 kts 95°
2026-04-21 19:16 48.96016 2.65230 6377 ft 189 kts 94°
2026-04-21 19:16 48.95879 2.67234 6816 ft 192 kts 94°
2026-04-21 19:17 48.95587 2.71510 7174 ft 221 kts 94°
2026-04-21 19:17 48.95419 2.73941 7176 ft 239 kts 94°
2026-04-21 19:17 48.95238 2.76543 7175 ft 253 kts 95°
2026-04-21 19:18 48.95034 2.79194 7170 ft 252 kts 96°
2026-04-21 19:18 48.94824 2.81841 7185 ft 252 kts 94°
2026-04-21 19:18 48.94657 2.84512 7181 ft 253 kts 94°
2026-04-21 19:18 48.94470 2.87151 7182 ft 253 kts 95°
2026-04-21 19:19 48.94268 2.89804 7181 ft 251 kts 95°
2026-04-21 19:19 48.91249 2.96326 7168 ft 271 kts 154°
2026-04-21 19:20 48.89347 2.96754 7165 ft 279 kts 179°
2026-04-21 19:20 48.87484 2.95960 7164 ft 288 kts 204°
2026-04-21 19:20 48.85952 2.93978 7168 ft 294 kts 231°
2026-04-21 19:20 48.84856 2.91347 7186 ft 296 kts 238°
2026-04-21 19:21 48.83814 2.88639 7183 ft 297 kts 238°
2026-04-21 19:21 48.82770 2.85940 7183 ft 296 kts 238°
2026-04-21 19:21 48.81708 2.83261 7184 ft 295 kts 237°
2026-04-21 19:21 48.80643 2.80583 7173 ft 296 kts 237°
2026-04-21 19:22 48.79582 2.77905 7234 ft 296 kts 237°
2026-04-21 19:22 48.78569 2.75344 8635 ft 272 kts 239°
2026-04-21 19:22 48.77596 2.72891 9737 ft 277 kts 240°
2026-04-21 19:22 48.76594 2.70372 10688 ft 279 kts 240°
2026-04-21 19:23 48.75585 2.67836 11568 ft 283 kts 240°
2026-04-21 19:23 48.74563 2.65266 12479 ft 288 kts 241°
2026-04-21 19:23 48.73506 2.62609 13081 ft 302 kts 241°
2026-04-21 19:23 48.72305 2.59925 13693 ft 320 kts 231°
2026-04-21 19:24 48.70544 2.57658 14097 ft 340 kts 214°
2026-04-21 19:24 48.68503 2.55827 14933 ft 341 kts 213°
2026-04-21 19:24 48.66449 2.53989 15728 ft 345 kts 214°
2026-04-21 19:24 48.64369 2.52136 16492 ft 348 kts 214°
2026-04-21 19:25 48.62294 2.50290 17250 ft 352 kts 216°
2026-04-21 19:25 48.60149 2.48381 18005 ft 355 kts 217°
2026-04-21 19:25 48.58035 2.46499 18672 ft 359 kts 217°
2026-04-21 19:25 48.55859 2.44562 19098 ft 366 kts 217°
2026-04-21 19:26 48.53659 2.42613 19180 ft 367 kts 217°
2026-04-21 19:26 48.51341 2.40874 19708 ft 374 kts 209°
2026-04-21 19:26 48.48752 2.40027 20290 ft 392 kts 188°
2026-04-21 19:26 48.45986 2.40411 20842 ft 403 kts 175°
2026-04-21 19:27 48.43208 2.41181 21388 ft 408 kts 173°
2026-04-21 19:27 48.40412 2.42067 21908 ft 413 kts 172°
2026-04-21 19:27 48.37588 2.42964 22456 ft 416 kts 173°
2026-04-21 19:27 48.34739 2.43802 22970 ft 419 kts 174°
2026-04-21 19:28 48.31852 2.44643 23491 ft 423 kts 173°
2026-04-21 19:28 48.28955 2.45517 23950 ft 427 kts 173°
2026-04-21 19:28 48.26034 2.46400 24383 ft 429 kts 173°
2026-04-21 19:28 48.23130 2.47266 24807 ft 431 kts 174°
2026-04-21 19:29 48.20181 2.48140 25227 ft 434 kts 174°
2026-04-21 19:29 48.17215 2.49024 25628 ft 435 kts 174°
2026-04-21 19:29 48.14227 2.49917 26015 ft 438 kts 174°
2026-04-21 19:29 48.11234 2.50804 26384 ft 440 kts 174°
2026-04-21 19:30 48.08224 2.51746 26717 ft 444 kts 170°
2026-04-21 19:30 48.05258 2.53201 27026 ft 449 kts 165°
2026-04-21 19:30 48.02285 2.54681 27369 ft 450 kts 166°
2026-04-21 19:30 47.99337 2.56160 27631 ft 456 kts 165°
2026-04-21 19:31 47.96317 2.57821 27967 ft 457 kts 163°
2026-04-21 19:31 47.93378 2.59448 28342 ft 456 kts 165°
2026-04-21 19:31 47.90388 2.61020 28766 ft 454 kts 166°
2026-04-21 19:31 47.87397 2.62577 29172 ft 454 kts 165°
2026-04-21 19:32 47.84414 2.64168 29555 ft 454 kts 165°
2026-04-21 19:32 47.81448 2.65761 29943 ft 453 kts 165°
2026-04-21 19:32 47.78477 2.67334 30310 ft 452 kts 166°
2026-04-21 19:32 47.75518 2.68890 30645 ft 450 kts 166°
2026-04-21 19:33 47.73564 2.69922 30890 ft 449 kts 166°
2026-04-21 19:33 47.69649 2.71995 31314 ft 448 kts 166°
2026-04-21 19:33 47.66711 2.73545 31624 ft 447 kts 166°
2026-04-21 19:33 47.63775 2.75091 31936 ft 446 kts 166°
2026-04-21 19:34 47.60854 2.76626 32254 ft 445 kts 166°
2026-04-21 19:34 47.57935 2.78161 32555 ft 445 kts 166°
2026-04-21 19:34 47.55057 2.79672 32840 ft 444 kts 167°
2026-04-21 19:34 47.52143 2.81201 33158 ft 442 kts 167°
2026-04-21 19:35 47.49228 2.82725 33434 ft 442 kts 167°
2026-04-21 19:35 47.43451 2.85745 34005 ft 440 kts 167°
2026-04-21 19:35 47.40564 2.87252 34251 ft 440 kts 167°
2026-04-21 19:36 47.37676 2.88758 34503 ft 438 kts 167°
2026-04-21 19:36 47.34857 2.90233 34982 ft 419 kts 167°
2026-04-21 19:36 47.32120 2.91659 35058 ft 420 kts 167°
2026-04-21 19:37 47.26547 2.94529 35066 ft 434 kts 167°
2026-04-21 19:37 47.20758 2.97540 35078 ft 445 kts 167°
2026-04-21 19:38 47.14875 3.00578 35076 ft 450 kts 166°
2026-04-21 19:38 47.09959 3.03116 35048 ft 449 kts 167°
2026-04-21 19:39 47.03122 3.06632 35042 ft 447 kts 167°
2026-04-21 19:39 46.97250 3.09647 35044 ft 446 kts 167°
2026-04-21 19:40 46.91354 3.12662 35045 ft 449 kts 166°
2026-04-21 19:40 46.85490 3.15660 35055 ft 449 kts 166°
2026-04-21 19:41 46.79582 3.18670 35051 ft 447 kts 167°
2026-04-21 19:41 46.73719 3.21650 35045 ft 446 kts 167°
2026-04-21 19:42 46.67876 3.24613 35073 ft 449 kts 167°
2026-04-21 19:42 46.61945 3.27614 35061 ft 452 kts 167°
2026-04-21 19:43 46.55990 3.30623 35054 ft 452 kts 167°
2026-04-21 19:43 46.50049 3.33614 35039 ft 451 kts 167°
2026-04-21 19:44 46.44123 3.36594 35040 ft 450 kts 167°
2026-04-21 19:44 46.38213 3.39555 35009 ft 449 kts 167°
2026-04-21 19:45 46.32309 3.42509 34996 ft 448 kts 167°
2026-04-21 19:45 46.26466 3.45427 34991 ft 447 kts 167°
2026-04-21 19:46 46.20567 3.48361 34993 ft 450 kts 167°
2026-04-21 19:46 46.14627 3.51315 34996 ft 450 kts 167°
2026-04-21 19:47 46.09711 3.53753 34996 ft 446 kts 166°
2026-04-21 19:47 46.03843 3.56656 35000 ft 444 kts 166°
2026-04-21 19:48 45.97987 3.59545 35006 ft 447 kts 166°
2026-04-21 19:48 45.92242 3.62943 35016 ft 454 kts 156°
2026-04-21 19:49 45.86716 3.67281 34842 ft 453 kts 158°
2026-04-21 19:49 45.83843 3.69188 34350 ft 452 kts 161°
2026-04-21 19:49 45.80976 3.71017 33847 ft 451 kts 160°
2026-04-21 19:49 45.78154 3.72987 33295 ft 451 kts 158°
2026-04-21 19:50 45.75343 3.75019 32750 ft 451 kts 158°
2026-04-21 19:50 45.72513 3.76970 32236 ft 453 kts 159°
2026-04-21 19:50 45.69653 3.78886 31697 ft 454 kts 159°
2026-04-21 19:50 45.66807 3.80837 31208 ft 453 kts 158°
2026-04-21 19:51 45.63987 3.82805 31029 ft 450 kts 158°
2026-04-21 19:51 45.58310 3.86686 31031 ft 457 kts 158°
2026-04-21 19:52 45.52553 3.90630 31031 ft 460 kts 158°
2026-04-21 19:52 45.46777 3.94575 31019 ft 458 kts 158°
2026-04-21 19:53 45.41026 3.98489 31015 ft 457 kts 158°
2026-04-21 19:53 45.35317 4.02371 31014 ft 457 kts 158°
2026-04-21 19:54 45.29565 4.06270 31023 ft 456 kts 158°
2026-04-21 19:54 45.23831 4.10150 31022 ft 456 kts 158°
2026-04-21 19:55 45.18126 4.14000 31020 ft 457 kts 158°
2026-04-21 19:55 45.12383 4.17869 31017 ft 456 kts 158°
2026-04-21 19:56 45.06654 4.21718 31029 ft 455 kts 159°
2026-04-21 19:56 45.01232 4.26348 31021 ft 459 kts 143°
2026-04-21 19:57 44.96274 4.32022 31015 ft 459 kts 143°
2026-04-21 19:57 44.91293 4.37674 31000 ft 459 kts 143°
2026-04-21 19:58 44.86351 4.43283 30987 ft 458 kts 144°
2026-04-21 19:58 44.81372 4.48912 30990 ft 458 kts 144°
2026-04-21 19:59 44.76404 4.54522 30987 ft 457 kts 144°
2026-04-21 19:59 44.71439 4.60112 30985 ft 457 kts 144°
2026-04-21 20:00 44.66461 4.65706 30973 ft 458 kts 144°
2026-04-21 20:00 44.61509 4.71259 30977 ft 458 kts 144°
2026-04-21 20:01 44.56520 4.76839 30968 ft 458 kts 144°
2026-04-21 20:01 44.51916 4.83056 30961 ft 459 kts 136°
2026-04-21 20:02 44.47384 4.89391 30946 ft 460 kts 137°
2026-04-21 20:02 44.42868 4.95750 30960 ft 460 kts 136°
2026-04-21 20:03 44.38360 5.02053 30947 ft 461 kts 136°
2026-04-21 20:03 44.36080 5.05240 30767 ft 466 kts 136°
2026-04-21 20:03 44.33748 5.08497 30269 ft 478 kts 136°
2026-04-21 20:03 44.31403 5.11770 29754 ft 465 kts 136°
2026-04-21 20:04 44.29162 5.14896 29167 ft 446 kts 136°
2026-04-21 20:04 44.26970 5.17749 28585 ft 427 kts 146°
2026-04-21 20:04 44.24485 5.19851 28030 ft 410 kts 155°
2026-04-21 20:04 44.22011 5.21709 27488 ft 398 kts 155°
2026-04-21 20:05 44.19572 5.23552 26959 ft 405 kts 155°
2026-04-21 20:05 44.17014 5.25508 26465 ft 434 kts 154°
2026-04-21 20:05 44.14287 5.27600 25997 ft 454 kts 154°
2026-04-21 20:05 44.11511 5.29724 25525 ft 457 kts 154°
2026-04-21 20:06 44.08734 5.31836 25031 ft 455 kts 154°
2026-04-21 20:06 44.05961 5.33946 24576 ft 448 kts 154°
2026-04-21 20:06 44.03237 5.36016 24102 ft 443 kts 154°
2026-04-21 20:06 44.00547 5.38058 23628 ft 438 kts 154°
2026-04-21 20:07 43.97884 5.40079 23102 ft 434 kts 154°
2026-04-21 20:07 43.95247 5.42076 22565 ft 430 kts 154°
2026-04-21 20:07 43.92663 5.44024 22035 ft 426 kts 154°
2026-04-21 20:07 43.90069 5.45979 21518 ft 422 kts 154°
2026-04-21 20:08 43.87502 5.47915 20984 ft 415 kts 154°
2026-04-21 20:08 43.84983 5.49815 20478 ft 410 kts 154°
2026-04-21 20:08 43.82488 5.51691 19985 ft 407 kts 154°
2026-04-21 20:08 43.80011 5.53550 19497 ft 403 kts 154°
2026-04-21 20:09 43.77550 5.55401 19016 ft 400 kts 154°
2026-04-21 20:09 43.75250 5.57542 18519 ft 401 kts 138°
2026-04-21 20:09 43.73438 5.60449 18036 ft 395 kts 129°
2026-04-21 20:09 43.71778 5.63421 17503 ft 386 kts 128°
2026-04-21 20:10 43.70172 5.66324 16980 ft 380 kts 128°
2026-04-21 20:10 43.68551 5.69194 16440 ft 376 kts 129°
2026-04-21 20:10 43.66942 5.72019 15942 ft 372 kts 129°
2026-04-21 20:10 43.65345 5.74834 15447 ft 373 kts 129°
2026-04-21 20:11 43.63746 5.77647 14957 ft 372 kts 129°
2026-04-21 20:11 43.62153 5.80441 14489 ft 366 kts 129°
2026-04-21 20:11 43.60614 5.83143 14003 ft 350 kts 129°
2026-04-21 20:11 43.59133 5.85740 13498 ft 340 kts 129°
2026-04-21 20:12 43.57679 5.88283 12963 ft 334 kts 129°
2026-04-21 20:12 43.56246 5.90798 12447 ft 332 kts 129°
2026-04-21 20:12 43.54848 5.93256 12009 ft 328 kts 129°
2026-04-21 20:12 43.53440 5.95730 11916 ft 322 kts 129°
2026-04-21 20:13 43.52049 5.98161 11924 ft 327 kts 129°
2026-04-21 20:13 43.50636 6.00631 11928 ft 329 kts 129°
2026-04-21 20:13 43.49221 6.03114 11932 ft 330 kts 129°
2026-04-21 20:13 43.47799 6.05599 11935 ft 330 kts 129°
2026-04-21 20:14 43.46377 6.08075 11926 ft 329 kts 129°
2026-04-21 20:14 43.44960 6.10548 11933 ft 328 kts 129°
2026-04-21 20:14 43.43686 6.13142 11927 ft 329 kts 120°
2026-04-21 20:14 43.42545 6.15839 11933 ft 330 kts 121°
2026-04-21 20:15 43.41354 6.18553 11937 ft 330 kts 122°
2026-04-21 20:15 43.40166 6.21250 11937 ft 329 kts 121°
2026-04-21 20:15 43.38987 6.23957 11937 ft 329 kts 121°
2026-04-21 20:15 43.37795 6.26631 11921 ft 327 kts 123°
2026-04-21 20:16 43.36548 6.29256 11445 ft 324 kts 123°
2026-04-21 20:16 43.35349 6.31813 10950 ft 313 kts 123°
2026-04-21 20:16 43.34203 6.34264 10467 ft 305 kts 123°
2026-04-21 20:16 43.33064 6.36685 9985 ft 298 kts 123°
2026-04-21 20:17 43.31945 6.39056 9475 ft 293 kts 123°
2026-04-21 20:17 43.30846 6.41384 8956 ft 288 kts 123°
2026-04-21 20:17 43.29760 6.43664 8437 ft 282 kts 123°
2026-04-21 20:17 43.28711 6.45908 7989 ft 276 kts 122°
2026-04-21 20:18 43.28115 6.47403 7928 ft 263 kts 111°
2026-04-21 20:18 43.27638 6.50657 7920 ft 264 kts 93°
2026-04-21 20:18 43.27471 6.53266 7462 ft 289 kts 93°
2026-04-21 20:18 43.27279 6.56109 7015 ft 305 kts 94°
2026-04-21 20:19 43.27081 6.58948 6546 ft 292 kts 94°
2026-04-21 20:19 43.26894 6.61671 6050 ft 282 kts 94°
2026-04-21 20:19 43.26713 6.64319 5539 ft 274 kts 94°
2026-04-21 20:19 43.26536 6.66900 5033 ft 269 kts 94°
2026-04-21 20:20 43.26370 6.69429 4534 ft 262 kts 91°
2026-04-21 20:20 43.26660 6.71845 4016 ft 255 kts 69°
2026-04-21 20:20 43.27430 6.73994 3524 ft 248 kts 59°
2026-04-21 20:20 43.28253 6.76028 3038 ft 245 kts 60°
2026-04-21 20:21 43.29047 6.78070 2528 ft 239 kts 66°
2026-04-21 20:21 43.29292 6.80288 2095 ft 233 kts 90°
2026-04-21 20:21 43.29233 6.82431 1994 ft 214 kts 92°
2026-04-21 20:21 43.29157 6.84401 1989 ft 204 kts 93°
2026-04-21 20:22 43.29080 6.86350 1994 ft 205 kts 93°
2026-04-21 20:22 43.28930 6.90272 1997 ft 206 kts 93°
2026-04-21 20:22 43.28854 6.92240 1998 ft 207 kts 93°
2026-04-21 20:23 43.28777 6.94211 2000 ft 207 kts 93°
2026-04-21 20:23 43.28701 6.96184 2000 ft 207 kts 93°
2026-04-21 20:23 43.28625 6.98160 2000 ft 207 kts 93°
2026-04-21 20:23 43.28549 7.00131 2000 ft 207 kts 93°
2026-04-21 20:24 43.28473 7.02100 2002 ft 207 kts 93°
2026-04-21 20:24 43.28396 7.04056 2001 ft 207 kts 93°
2026-04-21 20:24 43.28320 7.06023 2001 ft 207 kts 93°
2026-04-21 20:24 43.28243 7.07998 2002 ft 207 kts 93°
2026-04-21 20:25 43.28165 7.09975 2001 ft 207 kts 93°
2026-04-21 20:25 43.28088 7.11946 2001 ft 206 kts 93°
2026-04-21 20:25 43.28011 7.13915 2000 ft 206 kts 93°
2026-04-21 20:25 43.27934 7.15888 2000 ft 207 kts 93°
2026-04-21 20:26 43.27857 7.17856 1999 ft 207 kts 93°
2026-04-21 20:26 43.27734 7.19818 1997 ft 206 kts 101°
2026-04-21 20:26 43.27009 7.21454 2002 ft 206 kts 144°
2026-04-21 20:26 43.25646 7.21878 2003 ft 207 kts 190°
2026-04-21 20:27 43.24459 7.20842 2008 ft 208 kts 236°
2026-04-21 20:27 43.24151 7.18913 2021 ft 223 kts 279°
2026-04-21 20:27 43.24913 7.17078 2015 ft 228 kts 321°
2026-04-21 20:27 43.26300 7.16010 2019 ft 231 kts 334°
2026-04-21 20:28 43.27704 7.14906 2017 ft 233 kts 326°
2026-04-21 20:28 43.28943 7.13525 2014 ft 233 kts 314°
2026-04-21 20:28 43.29946 7.11777 2013 ft 233 kts 304°
2026-04-21 20:28 43.30845 7.09924 2016 ft 233 kts 304°
2026-04-21 20:29 43.31785 7.08107 2014 ft 233 kts 306°
2026-04-21 20:29 43.32747 7.06307 2015 ft 233 kts 306°
2026-04-21 20:29 43.33706 7.04505 2016 ft 234 kts 306°
2026-04-21 20:29 43.34634 7.02749 2011 ft 222 kts 306°
2026-04-21 20:30 43.35497 7.01115 2001 ft 200 kts 306°
2026-04-21 20:30 43.36270 6.99651 1991 ft 179 kts 306°
2026-04-21 20:30 43.37093 6.98522 1972 ft 158 kts 331°
2026-04-21 20:30 43.38064 6.98043 1972 ft 141 kts 352°
2026-04-21 20:31 43.39023 6.97890 1988 ft 138 kts 352°
2026-04-21 20:31 43.39982 6.97703 1995 ft 140 kts 353°
2026-04-21 20:31 43.40937 6.97535 2002 ft 140 kts 353°
2026-04-21 20:31 43.41908 6.97364 2005 ft 141 kts 353°
2026-04-21 20:32 43.42884 6.97192 2008 ft 141 kts 355°
2026-04-21 20:32 43.43864 6.97019 2014 ft 142 kts 355°
2026-04-21 20:32 43.44843 6.96848 2015 ft 142 kts 354°
2026-04-21 20:32 43.45823 6.96675 1956 ft 147 kts 355°
2026-04-21 20:33 43.46882 6.96487 1743 ft 160 kts 355°
2026-04-21 20:33 43.48020 6.96287 1477 ft 168 kts 354°
2026-04-21 20:33 43.49169 6.96083 1207 ft 164 kts 354°
2026-04-21 20:33 43.50275 6.95885 985 ft 152 kts 354°
2026-04-21 20:34 43.51278 6.95707 728 ft 139 kts 353°
2026-04-21 20:34 43.52212 6.95543 512 ft 132 kts 353°
2026-04-21 20:34 43.52807 6.95437 379 ft 128 kts 353°
2026-04-21 20:34 43.53689 6.95278 150 ft 127 kts 352°
2026-04-21 20:35 43.54796 6.95096 14 ft 107 kts 353°
2026-04-21 20:35 43.55212 6.95012 11 ft 63 kts 353°
2026-04-21 20:35 43.55384 6.95035 14 ft 15 kts 71°
2026-04-21 20:35 43.55361 6.95151 14 ft 13 kts 162°
2026-04-21 20:36 43.55273 6.95171 13 ft 12 kts 174°
2026-04-21 20:36 43.55197 6.95183 13 ft 10 kts 172°
2026-04-21 20:36 43.55133 6.95195 13 ft 9 kts 173°
2026-04-21 20:36 43.55071 6.95206 13 ft 9 kts 172°
2026-04-21 20:37 43.55013 6.95217 13 ft 8 kts 172°
2026-04-21 20:37 43.54956 6.95226 13 ft 8 kts 173°
2026-04-21 20:37 43.54901 6.95236 13 ft 8 kts 173°
2026-04-21 20:37 43.54852 6.95245 13 ft 7 kts 172°
2026-04-21 20:38 43.54806 6.95254 13 ft 6 kts 171°
2026-04-21 20:38 43.54763 6.95263 13 ft 6 kts 174°
2026-04-21 20:38 43.54723 6.95273 13 ft 5 kts 150°
2026-04-21 20:38 43.54707 6.95313 13 ft 5 kts 108°
2026-04-21 20:39 43.54693 6.95337 13 ft 1 kts 175°
2026-04-21 20:39 43.54692 6.95337 13 ft 0 kts 175°